DateTimeUTC,F1_A11,F1_S11,BsB_S11,BsG_S11,BsR_S11,BbsB_S11,BbsG_S11,BbsR_S11,BaB_A11,BaG_A11,BaR_A11,Tu_S11,T_S11,Uu_S11,U_S11,P_S11,T1_A11
2021-08-31T01:00:00Z,00000200,21000000,,,,,,,-000.56,0000.16,-000.39,17.9,25.2,,00.0,0674.3,30.9
2021-08-31T01:01:00Z,00000200,21000000,,,,,,,-000.46,-000.76,0000.24,17.9,25.2,,00.0,0674.3,30.9
2021-08-31T01:02:00Z,00000200,21000000,,,,,,,-000.07,-000.02,-000.28,18.0,25.2,,00.0,0674.3,31.0
2021-08-31T01:03:00Z,00000200,61000000,,,,,,,-000.42,-000.14,0000.05,18.0,25.2,,00.0,0674.3,31.0
2021-08-31T01:04:00Z,00000200,41000000,0000.91,0000.93,0000.57,-000.20,0000.20,0000.35,0000.59,-000.15,-000.23,18.5,25.2,,00.0,0675.2,31.0
2021-08-31T01:05:00Z,00000200,01000000,0000.99,0000.49,0000.36,0000.17,-000.08,0000.19,-000.42,-000.02,-000.09,18.7,25.2,00.0,00.0,0675.3,31.0
2021-08-31T01:06:00Z,00000200,01000000,0000.56,0000.79,0000.81,0000.04,0000.06,0000.60,-000.32,0000.02,0000.04,18.7,25.2,00.0,00.0,0675.3,31.0
2021-08-31T01:07:00Z,00000200,01000000,0000.07,0000.82,0000.66,0000.39,-000.05,0000.32,0000.05,-000.00,0000.02,18.6,25.2,,00.0,0675.4,31.0
2021-08-31T01:08:00Z,00000200,01000000,0000.75,0000.79,0000.42,-000.05,0000.04,0000.34,-000.24,-000.37,-000.17,18.6,25.1,,00.0,0675.4,31.0
2021-08-31T01:09:00Z,00000200,01000000,0001.20,0000.62,0000.28,0000.01,-000.05,0000.20,-000.28,-000.14,-000.08,18.5,25.1,,00.0,0675.4,31.0
2021-08-31T01:10:00Z,00000200,01000000,0001.11,0001.05,0000.60,0000.17,0000.05,0000.05,0000.01,-000.30,-000.47,18.4,25.1,,00.0,0675.4,30.9
2021-08-31T01:11:00Z,00000200,01000000,0001.05,0000.79,0000.24,0000.41,0000.04,0000.07,0000.05,0000.17,0000.31,18.3,25.0,,00.0,0675.4,30.9
2021-08-31T01:12:00Z,00000200,01000000,0000.55,0000.29,0000.24,-000.18,-000.41,-000.09,0000.18,0000.22,0000.02,18.3,25.0,,00.0,0675.4,30.9
2021-08-31T01:13:00Z,00000200,01000000,0000.60,0000.54,0000.32,-000.12,0000.12,0000.15,-000.34,0000.06,-000.17,18.2,24.9,,00.0,0675.4,30.9
2021-08-31T01:14:00Z,00000200,01000000,0000.25,0000.30,0000.25,0000.36,0000.03,0000.05,0000.27,-000.31,-000.12,18.2,24.9,,00.0,0675.4,30.9
2021-08-31T01:15:00Z,00000200,01000000,0000.82,0000.68,0000.50,-000.32,0000.13,0000.40,-000.33,-000.08,-000.00,18.2,24.9,,00.0,0675.5,30.9
2021-08-31T01:16:00Z,00000200,01000000,0000.55,0000.24,0000.13,-000.11,-000.12,0000.05,0000.01,0000.01,-000.19,18.3,24.9,,00.0,0675.5,30.9
2021-08-31T01:17:00Z,00000200,01000000,0000.25,0000.30,-000.03,-000.28,0000.30,-000.11,-000.06,-000.06,0000.46,18.4,25.0,,00.0,0675.5,30.9
2021-08-31T01:18:00Z,00000200,01000000,0000.41,0000.15,-000.10,0000.17,0000.01,0000.10,0000.63,0000.55,0000.09,18.5,25.0,,00.0,0675.5,31.0
2021-08-31T01:19:00Z,00000200,01000000,0001.09,0000.28,-000.01,-000.40,-000.23,0000.40,-000.03,0000.25,0000.09,18.6,25.1,,00.0,0675.5,31.0
2021-08-31T01:20:00Z,00000200,01000000,0000.30,0000.12,0000.25,0000.31,-000.22,0000.15,0000.12,-000.29,0000.13,18.7,25.1,,00.0,0675.5,31.0
2021-08-31T01:21:00Z,00000200,01000000,0000.02,0000.17,0000.10,-000.24,-000.04,0000.05,-000.48,-000.17,-000.03,18.8,25.2,,00.0,0675.5,31.0
2021-08-31T01:22:00Z,00000200,01000000,0000.32,0000.54,0000.05,-000.15,0000.41,0000.19,-000.33,-000.26,-000.64,18.8,25.2,,00.0,0675.5,31.0
2021-08-31T01:23:00Z,00000200,01000000,-000.46,0000.34,0000.19,0000.03,-000.05,0000.36,0000.21,-000.05,-000.01,18.7,25.2,,00.0,0675.5,31.0
2021-08-31T01:24:00Z,00000200,01000000,0000.34,0000.80,0000.11,0000.58,0000.16,-000.05,-000.54,-000.32,0000.07,18.6,25.1,,00.0,0675.5,31.0
2021-08-31T01:25:00Z,00000200,01000000,0000.54,0000.54,0000.59,-000.13,0000.12,0000.39,0000.14,-000.30,-000.39,18.6,25.1,,00.0,0675.5,30.9
2021-08-31T01:26:00Z,00000200,01000000,0000.26,0000.25,0000.25,-000.10,-000.04,0000.23,-000.02,0000.27,0000.27,18.5,25.1,,00.0,0675.5,30.9
2021-08-31T01:27:00Z,00000200,01000000,-000.09,0000.45,0000.23,-000.08,-000.03,0000.34,-000.04,-000.15,-000.17,18.4,25.0,,00.0,0675.5,30.9
2021-08-31T01:28:00Z,00000200,01000000,-000.78,0000.41,0000.08,-000.47,-000.09,0000.07,0000.01,0000.03,0000.32,18.3,25.0,,00.0,0675.5,30.9
2021-08-31T01:29:00Z,00000200,01000000,0000.03,0000.24,-000.16,0000.36,0000.15,0000.34,0000.48,0000.63,0000.05,18.3,25.0,,00.0,0675.5,30.9
2021-08-31T01:30:00Z,00000200,01000000,0000.01,0000.17,0000.21,0000.32,0000.01,0000.36,-000.06,-000.13,0000.37,18.3,25.0,,00.0,0675.5,30.9
2021-08-31T01:31:00Z,00000200,01000000,0000.14,0000.46,0000.49,0000.15,0000.21,0000.34,0000.26,0000.13,-000.19,18.4,25.0,,00.0,0675.5,30.9
2021-08-31T01:32:00Z,00000200,01000000,-000.08,0000.38,0000.39,-000.41,0000.12,0000.17,-000.21,0000.18,0000.07,18.5,25.0,,00.0,0675.5,31.0
2021-08-31T01:33:00Z,00000200,01000000,0000.33,0000.14,0000.20,-000.04,-000.11,0000.28,0000.19,-000.07,-000.03,18.6,25.1,,00.0,0675.5,31.0
2021-08-31T01:34:00Z,00000200,01000000,0000.60,0000.17,0000.18,0000.12,0000.12,0000.17,-000.42,-000.23,-000.19,18.7,25.1,,00.0,0675.5,31.0
2021-08-31T01:35:00Z,00000200,01000000,-000.32,0000.60,0000.10,0000.28,-000.07,0000.24,0000.29,0000.03,0000.30,18.7,25.1,,00.0,0675.5,31.0
2021-08-31T01:36:00Z,00000200,01000000,-000.44,0000.04,0000.17,0000.08,0000.20,0000.26,-000.56,-000.23,-000.59,18.7,25.1,,00.0,0675.5,31.0
2021-08-31T01:37:00Z,00000200,01000000,0000.05,0000.37,0000.48,0001.11,0000.23,0000.15,0000.00,-000.22,0000.16,18.6,25.1,,00.0,0675.5,31.0
2021-08-31T01:38:00Z,00000200,01000000,-000.01,0000.33,0000.04,0000.02,-000.06,0000.19,0000.19,0000.11,-000.10,18.5,25.1,,00.0,0675.5,30.9
2021-08-31T01:39:00Z,00000200,01000000,-000.01,0000.18,-000.08,-000.31,-000.05,0000.12,0000.08,0000.32,0000.05,18.5,25.0,,00.0,0675.6,30.9
2021-08-31T01:40:00Z,00000200,01000000,0000.39,0000.19,0000.31,-000.26,0000.12,0000.45,-000.39,-000.40,-000.31,18.4,25.0,,00.0,0675.6,30.9
2021-08-31T01:41:00Z,00000200,01000000,0000.01,0000.11,0000.09,0000.23,0000.03,0000.31,-000.10,-000.24,-000.05,18.3,25.0,,00.0,0675.6,30.9
2021-08-31T01:42:00Z,00000200,01000000,0000.37,0000.36,-000.04,0000.26,0000.01,-000.07,-000.09,-000.29,-000.15,18.2,24.9,,00.0,0675.6,30.9
2021-08-31T01:43:00Z,00000200,01000000,0000.28,0000.39,0000.58,-000.01,0000.30,0000.15,-000.16,-000.14,-000.17,18.2,24.9,,00.0,0675.6,30.9
2021-08-31T01:44:00Z,00000200,01000000,0000.96,0000.42,0000.09,0000.50,0000.38,-000.10,-000.07,0000.20,0000.23,18.1,24.8,,00.0,0675.6,30.9
2021-08-31T01:45:00Z,00000200,01000000,0000.68,0000.67,0000.13,-000.04,-000.12,0000.33,0000.06,-000.04,0000.11,18.2,24.8,,00.0,0675.6,30.9
2021-08-31T01:46:00Z,00000200,01000000,0000.37,0000.58,0000.28,0000.17,0000.01,0000.16,0000.15,-000.15,0000.07,18.3,24.9,,00.0,0675.6,30.9
2021-08-31T01:47:00Z,00000200,01000000,0000.50,0000.37,0000.28,-000.77,-000.09,0000.28,-000.05,0000.11,-000.03,18.3,24.9,,00.0,0675.6,30.9
2021-08-31T01:48:00Z,00000200,01000000,0000.56,0000.33,0000.08,-000.42,0000.00,0000.08,0000.12,0000.05,0000.01,18.4,25.0,,00.0,0675.6,30.9
2021-08-31T01:49:00Z,00000200,01000000,0000.18,0000.62,-000.02,0000.47,-000.18,-000.05,-000.19,0000.03,-000.24,18.6,25.0,,00.0,0675.7,31.0
2021-08-31T01:50:00Z,00000200,01000000,0000.17,0000.19,0000.17,-000.24,-000.02,0000.12,-000.32,0000.12,0000.11,18.6,25.1,,00.0,0675.7,31.0
2021-08-31T01:51:00Z,00000200,01000000,0000.77,0000.14,0000.28,0000.41,-000.00,0000.27,0000.08,-000.42,0000.14,18.7,25.1,,00.0,0675.7,31.0
2021-08-31T01:52:00Z,00000200,01000000,0000.67,0000.27,0000.54,0000.51,0000.21,0000.39,0000.02,-000.15,-000.47,18.7,25.1,,00.0,0675.7,31.0
2021-08-31T01:53:00Z,00000200,01000000,-000.39,0000.60,0000.16,0000.24,0000.12,0000.00,-000.17,-000.19,-000.42,18.6,25.1,,00.0,0675.7,31.0
2021-08-31T01:54:00Z,00000200,01000000,0000.71,0000.52,0000.22,0000.46,-000.03,0000.07,0000.08,0000.12,0000.30,18.5,25.0,,00.0,0675.7,31.0
2021-08-31T01:55:00Z,00000200,01000000,0000.12,0000.26,-000.07,0000.57,-000.11,0000.02,-000.38,-000.07,-000.26,18.4,25.0,,00.0,0675.7,30.9
2021-08-31T01:56:00Z,00000200,01000000,0000.60,0000.11,0000.17,-000.44,-000.38,0000.08,0000.50,0000.26,0000.57,18.3,25.0,,00.0,0675.7,30.9
2021-08-31T01:57:00Z,00000200,41000000,,,,,,,0001.26,0001.31,0000.78,18.3,25.0,,00.0,0675.6,30.9
2021-08-31T01:58:00Z,00000200,61000000,,,,,,,-000.44,-000.58,-000.15,17.9,25.1,,00.0,0674.7,30.9
2021-08-31T01:59:00Z,00000200,21000000,,,,,,,0000.34,-000.03,-000.11,17.8,25.2,,00.0,0674.7,30.9
